FW3025 Weather Reports


Display with metric or nautical units.
time (UTC)temp
F
wind
direction
speed
MPH
gust
MPH
rain 1hr
in
rain 24hr
in
rain mn
in
humidity
%
barometer
mb
20260506044558 51 355 0.0 0.0 0.00 0.02 0.02 88 957.5
20260506043053 51 355 0.0 0.0 0.00 0.02 0.02 87 957.5
20260506041559 51 355 0.0 0.0 0.00 0.02 0.02 87 957.5
20260506040047 52 349 0.0 1.0 0.00 0.02 0.02 86 957.7
20260506034543 52 349 0.0 2.0 0.00 0.02 0.02 85 957.6
20260506033042 53 315 0.0 1.0 0.00 0.02 0.02 84 957.9
20260506031507 53 306 0.0 3.0 0.00 0.02 0.02 83 957.9
20260506030005 54 344 0.0 2.0 0.00 0.02 0.02 82 958.0
20260506024504 55 23 1.0 5.0 0.00 0.02 0.02 81 957.7
20260506023058 56 333 1.0 7.0 0.00 0.02 0.02 80 957.8
20260506021553 57 171 0.0 4.0 0.00 0.02 0.02 82 957.7
20260506020116 59 351 0.0 4.0 0.00 0.02 0.02 84 957.7
20260506014547 59 315 0.0 0.0 0.00 0.02 0.02 83 957.6
20260506013044 60 315 0.0 2.0 0.00 0.02 0.02 83 957.3
20260506011548 60 315 0.0 3.0 0.00 0.02 0.02 83 957.0
20260506010041 61 326 0.0 3.0 0.00 0.02 0.02 83 957.1
20260506004543 61 270 0.0 1.0 0.00 0.02 0.02 82 956.6
20260506003037 61 270 0.0 1.0 0.00 0.02 0.02 81 956.1
20260506001556 62 270 0.0 2.0 0.00 0.02 0.02 80 956.0
20260506000104 62 266 0.0 0.0 0.00 0.02 0.02 80 956.0
20260505234548 62 266 0.0 0.0 0.00 0.02 0.02 80 955.9
20260505233051 62 266 0.0 0.0 0.00 0.02 0.02 80 956.1
20260505231530 62 266 0.0 0.0 0.01 0.02 0.02 80 955.9
20260505230040 63 269 0.0 0.0 0.01 0.02 0.02 80 956.0
20260505224528 63 269 0.0 3.0 0.01 0.02 0.02 79 955.9
20260505223031 64 274 0.0 5.0 0.01 0.02 0.02 79 955.7
20260505221524 65 187 1.0 5.0 0.00 0.01 0.01 77 955.8
20260505220021 66 234 0.0 1.0 0.00 0.01 0.01 76 955.3
20260505214521 66 192 0.0 4.0 0.00 0.01 0.01 75 955.3
20260505213026 66 202 0.0 2.0 0.00 0.01 0.01 76 954.9
20260505211609 65 202 0.0 5.0 0.00 0.01 0.01 75 955.0
20260505210046 63 59 0.0 2.0 0.00 0.01 0.01 80 955.1
20260505204556 62 307 0.0 5.0 0.01 0.01 0.01 82 955.2
20260505203042 62 274 0.0 4.0 0.01 0.01 0.01 83 955.4
20260505201515 62 310 0.0 3.0 0.01 0.01 0.01 81 955.3
20260505200012 63 26 1.0 12.0 0.01 0.01 0.01 78 955.4
20260505194508 68 294 8.0 31.0 0.01 0.01 0.01 68 955.8
20260505193006 75 103 4.0 13.0 0.00 0.00 0.00 38 954.0
20260505191515 77 198 3.0 11.0 0.00 0.00 0.00 38 953.4
20260505190010 78 149 3.0 14.0 0.00 0.00 0.00 43 953.8
20260505184506 77 228 2.0 6.0 0.00 0.00 0.00 46 953.8
20260505183003 77 236 5.0 12.0 0.00 0.00 0.00 47 954.2
20260505181611 76 209 2.0 6.0 0.00 0.00 0.00 50 954.7
20260505174547 75 175 1.0 15.0 0.00 0.00 0.00 51 955.0
20260505173145 75 193 2.0 15.0 0.00 0.00 0.00 51 955.2
20260505171517 75 211 2.0 11.0 0.00 0.00 0.00 49 955.1
20260505170010 76 176 1.0 7.0 0.00 0.00 0.00 50 954.9
20260505164508 76 163 3.0 6.0 0.00 0.00 0.00 49 954.8
20260505163009 76 158 2.0 7.0 0.00 0.00 0.00 48 954.9
20260505161503 76 45 2.0 9.0 0.00 0.00 0.00 48 955.1
20260505153059 76 229 3.0 13.0 0.00 0.00 0.00 47 955.3
20260505151537 75 175 3.0 8.0 0.00 0.00 0.00 49 955.4
20260505124532 59 195 0.0 8.0 0.00 0.00 0.00 75 956.4
20260505123045 58 123 0.0 5.0 0.00 0.00 0.00 76 956.1
20260505121531 58 177 0.0 3.0 0.00 0.00 0.00 78 956.2
20260505120039 58 190 0.0 3.0 0.00 0.00 0.00 76 956.0
20260505114531 58 153 1.0 3.0 0.00 0.00 0.00 76 955.8
20260505113029 59 173 1.0 10.0 0.00 0.00 0.00 75 955.9
20260505111533 58 197 1.0 4.0 0.00 0.00 0.00 70 956.4
20260505101511 58 187 0.0 2.0 0.00 0.00 0.00 68 955.8
20260505100012 58 144 0.0 2.0 0.00 0.00 0.00 67 955.5
20260505094510 58 132 1.0 3.0 0.00 0.00 0.00 67 955.3
20260505093012 58 209 0.0 4.0 0.00 0.00 0.00 66 955.3
20260505090026 58 154 0.0 5.0 0.00 0.00 0.00 65 955.1
20260505084528 58 163 1.0 5.0 0.00 0.00 0.00 65 955.2
20260505083025 58 161 0.0 5.0 0.00 0.00 0.00 64 955.2
20260505081514 59 158 1.0 4.0 0.00 0.00 0.00 63 955.1
20260505080008 59 159 0.0 4.0 0.00 0.00 0.00 62 955.2
20260505074508 59 167 0.0 3.0 0.00 0.00 0.00 62 955.3
20260505073008 59 129 0.0 5.0 0.00 0.00 0.00 62 955.2
20260505071518 59 160 1.0 7.0 0.00 0.00 0.00 62 955.2
20260505070017 59 179 1.0 5.0 0.00 0.00 0.00 61 955.4
20260505064531 59 128 0.0 3.0 0.00 0.00 0.00 61 955.3
20260505063016 59 231 1.0 3.0 0.00 0.00 0.00 61 955.3
20260505061512 59 134 0.0 3.0 0.00 0.00 0.00 60 955.2
20260505060011 59 178 0.0 4.0 0.00 0.00 0.00 60 955.3